{"data":{"norad_id":64283,"epoch":"2026-09-21T20:52:48.876960Z","epoch_age_seconds":70065,"freshness":"FRESH","line1":"1 64283U 25121A   26264.87001015  .00000033  00000+0  43810-4 0  9991","line2":"2 64283  86.5042 340.9575 0001684 109.3733 250.7583 13.24410822 62957","mean_motion":13.24410822,"eccentricity":0.0001684,"inclination_deg":86.5042,"raan_deg":340.9575,"arg_perigee_deg":109.3733,"mean_anomaly_deg":250.7583,"bstar":4.381e-5,"rev_number":6295,"period_min":108.72759238145,"perigee_km":1166.6483074608,"apogee_km":1169.1898191429,"semimajor_km":7546.0560633019,"source":"CELESTRAK","updated_at":"2026-09-22T09:00:29.675275Z"}}